EOS-08 (60454 NORAD) Tracking and Keplerian Element Data

This shows tracking and keplerian element data for the satellite.

Feedback or suggestion? Click here.




ElementValue
Catalog60454
NameEOS-08
Epoch Orbit845
Epoch Day286.51547748
Epoch Year2024
RAAN304.135
Inclination37.3815
Eccentricity0.0005329
Argument of Perigee130.3704
Mean Anonmoly229.7522
Mean Motion15.34388742
Decay Rate0.00048085
L11 60454U 24147A 24286.51547748 .00048085 00000+0 14023-2 0 9996
L22 60454 37.3815 304.1350 0005329 130.3704 229.7522 15.34388742 8452



Live tracking and technical data element details for EOS-08 (NORAD 60454). EOS-08 can be tracked NOW for your location showing map with azimuth and elevation plus other details from your city location.







IsCatalogInMostPopularTable: catalog: 60454, numindb: 4
Update: records affected: 1



GetName: 60454 EOS-08

Hit Count: updated at: Wed, 04 Dec 2024 19:46:59 GMT